Station Historical Data
Daily Summary for October 19, 2017 Units:  English    Metric   Both
Next Day »
Daily Weekly Monthly Yearly Custom
  High: Low: Average:
Temperature: 65.7 °F 51.7 °F 57.4 °F
Dew Point: 51.0 °F 28.5 °F 38.6 °F
Humidity: 85% 31% 52%
Wind Speed: 18.0mph 0.0mph 5.6mph
Wind Gust: 20.0mph - -
Wind- - SSE
Pressure: 29.97 in 29.80 in -
Precipitation: 0.00 in    
Historical Graphs
 
 
Tabular Data for October 19, 2017
Time Temperature Dew Point Pressure Wind Wind Speed Wind Gust Humidity Rainfall Rate (Hourly) solar Conditions
00:03 57.3 °F 31.3 °F 29.97 in ESE 7.0 mph 12.0 mph 37% 0.00 in 0.00 W/m2
00:08 57.1 °F 31.1 °F 29.97 in SE 5.0 mph 13.0 mph 37% 0.00 in 0.00 W/m2
00:13 57.1 °F 31.1 °F 29.97 in Calm   12.0 mph 37% 0.00 in 0.00 W/m2
00:18 57.0 °F 31.0 °F 29.97 in SE 1.0 mph 8.0 mph 37% 0.00 in 0.00 W/m2
00:23 56.9 °F 30.9 °F 29.97 in SE 4.0 mph 13.0 mph 37% 0.00 in 0.00 W/m2
00:28 56.8 °F 30.8 °F 29.97 in SE 6.0 mph 12.0 mph 37% 0.00 in 0.00 W/m2
00:33 56.8 °F 31.5 °F 29.97 in ESE 4.0 mph 9.0 mph 38% 0.00 in 0.00 W/m2
00:38 56.7 °F 31.4 °F 29.97 in ESE 7.0 mph 12.0 mph 38% 0.00 in 0.00 W/m2
00:43 56.6 °F 31.3 °F 29.97 in SE 8.0 mph 11.0 mph 38% 0.00 in 0.00 W/m2
00:48 56.5 °F 31.2 °F 29.97 in SE 8.0 mph 12.0 mph 38% 0.00 in 0.00 W/m2
00:53 56.5 °F 31.2 °F 29.97 in ESE 1.0 mph 12.0 mph 38% 0.00 in 0.00 W/m2
00:58 56.4 °F 31.1 °F 29.96 in SE 8.0 mph 13.0 mph 38% 0.00 in 0.00 W/m2
01:03 56.3 °F 31.0 °F 29.96 in ESE 12.0 mph 12.0 mph 38% 0.00 in 0.00 W/m2
01:08 56.3 °F 31.7 °F 29.96 in SE 11.0 mph 13.0 mph 39% 0.00 in 0.00 W/m2
01:13 56.2 °F 31.0 °F 29.96 in ESE 4.0 mph 14.0 mph 38% 0.00 in 0.00 W/m2
01:18 56.2 °F 31.0 °F 29.96 in ESE 5.0 mph 9.0 mph 38% 0.00 in 0.00 W/m2
01:23 56.1 °F 30.9 °F 29.96 in SE 14.0 mph 14.0 mph 38% 0.00 in 0.00 W/m2
01:28 56.1 °F 30.9 °F 29.96 in SE 9.0 mph 11.0 mph 38% 0.00 in 0.00 W/m2
01:33 56.0 °F 31.4 °F 29.96 in ESE 2.0 mph 12.0 mph 39% 0.00 in 0.00 W/m2
01:38 55.9 °F 30.7 °F 29.96 in East 2.0 mph 11.0 mph 38% 0.00 in 0.00 W/m2
01:43 55.8 °F 31.2 °F 29.96 in ESE 5.0 mph 11.0 mph 39% 0.00 in 0.00 W/m2
01:48 55.8 °F 31.2 °F 29.96 in SE 5.0 mph 14.0 mph 39% 0.00 in 0.00 W/m2
01:53 55.7 °F 31.1 °F 29.96 in SE 1.0 mph 14.0 mph 39% 0.00 in 0.00 W/m2
01:58 55.6 °F 31.1 °F 29.96 in ESE 7.0 mph 11.0 mph 39% 0.00 in 0.00 W/m2
02:03 55.6 °F 31.1 °F 29.96 in SE 2.0 mph 12.0 mph 39% 0.00 in 0.00 W/m2
02:08 55.5 °F 31.0 °F 29.95 in ESE 2.0 mph 15.0 mph 39% 0.00 in 0.00 W/m2
02:13 55.5 °F 31.0 °F 29.96 in Calm   11.0 mph 39% 0.00 in 0.00 W/m2
02:18 55.4 °F 30.9 °F 29.95 in ESE 5.0 mph 13.0 mph 39% 0.00 in 0.00 W/m2
02:23 55.3 °F 30.8 °F 29.96 in ESE 11.0 mph 11.0 mph 39% 0.00 in 0.00 W/m2
02:29 55.3 °F 30.8 °F 29.95 in SE 2.0 mph 9.0 mph 39% 0.00 in 0.00 W/m2
02:34 55.2 °F 30.7 °F 29.95 in SE 8.0 mph 13.0 mph 39% 0.00 in 0.00 W/m2
02:39 55.1 °F 30.6 °F 29.95 in ESE 11.0 mph 11.0 mph 39% 0.00 in 0.00 W/m2
02:44 55.0 °F 31.1 °F 29.95 in ESE 6.0 mph 12.0 mph 40% 0.00 in 0.00 W/m2
02:49 54.9 °F 30.4 °F 29.95 in ESE 1.0 mph 13.0 mph 39% 0.00 in 0.00 W/m2
02:54 54.9 °F 31.0 °F 29.95 in SE 4.0 mph 12.0 mph 40% 0.00 in 0.00 W/m2
02:59 54.9 °F 31.0 °F 29.95 in SE 4.0 mph 14.0 mph 40% 0.00 in 0.00 W/m2
03:04 54.9 °F 31.0 °F 29.95 in SE 9.0 mph 12.0 mph 40% 0.00 in 0.00 W/m2
03:09 54.9 °F 30.4 °F 29.95 in SE 5.0 mph 12.0 mph 39% 0.00 in 0.00 W/m2
03:15 54.9 °F 31.0 °F 29.95 in ESE 12.0 mph 13.0 mph 40% 0.00 in 0.00 W/m2
03:20 54.9 °F 30.4 °F 29.94 in ESE 7.0 mph 13.0 mph 39% 0.00 in 0.00 W/m2
03:25 54.9 °F 30.4 °F 29.94 in ESE 11.0 mph 15.0 mph 39% 0.00 in 0.00 W/m2
03:30 54.9 °F 30.4 °F 29.94 in ESE 1.0 mph 15.0 mph 39% 0.00 in 0.00 W/m2
03:35 54.9 °F 30.4 °F 29.94 in SE 8.0 mph 13.0 mph 39% 0.00 in 0.00 W/m2
03:40 54.9 °F 30.4 °F 29.94 in ESE 5.0 mph 14.0 mph 39% 0.00 in 0.00 W/m2
03:45 55.0 °F 30.5 °F 29.94 in ESE 4.0 mph 14.0 mph 39% 0.00 in 0.00 W/m2
03:50 55.0 °F 30.5 °F 29.93 in SE 1.0 mph 14.0 mph 39% 0.00 in 0.00 W/m2
03:55 55.0 °F 30.5 °F 29.93 in SE 5.0 mph 12.0 mph 39% 0.00 in 0.00 W/m2
04:00 55.1 °F 30.0 °F 29.93 in Calm   13.0 mph 38% 0.00 in 0.00 W/m2
04:05 55.1 °F 30.0 °F 29.93 in ESE 4.0 mph 9.0 mph 38% 0.00 in 0.00 W/m2
04:10 55.1 °F 30.6 °F 29.93 in ESE 6.0 mph 9.0 mph 39% 0.00 in 0.00 W/m2
04:15 55.0 °F 30.5 °F 29.93 in ESE 2.0 mph 14.0 mph 39% 0.00 in 0.00 W/m2
04:20 55.0 °F 29.9 °F 29.93 in ESE 7.0 mph 12.0 mph 38% 0.00 in 0.00 W/m2
04:25 54.9 °F 29.8 °F 29.93 in ESE 5.0 mph 13.0 mph 38% 0.00 in 0.00 W/m2
04:30 54.8 °F 30.3 °F 29.93 in Calm   12.0 mph 39% 0.00 in 0.00 W/m2
04:31 54.8 °F 30.3 °F 29.93 in ESE 2.0 mph 2.0 mph 39% 0.00 in 0.00 W/m2
04:36 54.7 °F 30.2 °F 29.93 in SE 6.0 mph 11.0 mph 39% 0.00 in 0.00 W/m2
04:41 54.6 °F 30.2 °F 29.94 in ESE 4.0 mph 4.0 mph 39% 0.00 in 0.00 W/m2
04:46 54.6 °F 29.5 °F 29.94 in Calm   2.0 mph 38% 0.00 in 0.00 W/m2
04:51 54.5 °F 29.4 °F 29.94 in SE 1.0 mph 4.0 mph 38% 0.00 in 0.00 W/m2
04:56 54.5 °F 29.4 °F 29.94 in SE 4.0 mph 6.0 mph 38% 0.00 in 0.00 W/m2
05:01 54.4 °F 29.3 °F 29.94 in Calm   1.0 mph 38% 0.00 in 0.00 W/m2
05:06 54.4 °F 29.3 °F 29.94 in Calm     38% 0.00 in 0.00 W/m2
05:11 54.3 °F 29.9 °F 29.95 in Calm   6.0 mph 39% 0.00 in 0.00 W/m2
05:16 54.2 °F 29.8 °F 29.95 in SE 6.0 mph 6.0 mph 39% 0.00 in 0.00 W/m2
05:21 54.0 °F 29.6 °F 29.95 in SE 4.0 mph 7.0 mph 39% 0.00 in 0.00 W/m2
05:26 53.7 °F 30.0 °F 29.94 in SE 8.0 mph 8.0 mph 40% 0.00 in 0.00 W/m2
05:31 53.5 °F 29.8 °F 29.94 in SE 2.0 mph 5.0 mph 40% 0.00 in 0.00 W/m2
05:36 53.3 °F 29.6 °F 29.94 in SE 1.0 mph 7.0 mph 40% 0.00 in 0.00 W/m2
05:41 53.0 °F 30.0 °F 29.94 in SE 7.0 mph 10.0 mph 41% 0.00 in 0.00 W/m2
05:46 52.8 °F 30.4 °F 29.94 in SE 1.0 mph 8.0 mph 42% 0.00 in 0.00 W/m2
05:51 52.6 °F 30.2 °F 29.94 in SE 1.0 mph 9.0 mph 42% 0.00 in 0.00 W/m2
05:56 52.6 °F 30.8 °F 29.94 in SE 2.0 mph 8.0 mph 43% 0.00 in 0.00 W/m2
06:01 52.5 °F 30.1 °F 29.94 in SE 1.0 mph 7.0 mph 42% 0.00 in 0.00 W/m2
06:06 52.4 °F 30.0 °F 29.94 in SE 6.0 mph 9.0 mph 42% 0.00 in 0.00 W/m2
06:11 52.3 °F 29.9 °F 29.94 in SE 11.0 mph 13.0 mph 42% 0.00 in 0.00 W/m2
06:16 52.3 °F 29.9 °F 29.94 in Calm   6.0 mph 42% 0.00 in 0.00 W/m2
06:21 52.3 °F 29.9 °F 29.94 in SE 9.0 mph 9.0 mph 42% 0.00 in 0.00 W/m2
06:26 52.3 °F 29.9 °F 29.94 in SE 7.0 mph 8.0 mph 42% 0.00 in 0.00 W/m2
06:31 52.3 °F 29.3 °F 29.94 in SE 9.0 mph 12.0 mph 41% 0.00 in 0.00 W/m2
06:36 52.2 °F 29.2 °F 29.94 in SE 4.0 mph 9.0 mph 41% 0.00 in 0.00 W/m2
06:41 52.2 °F 29.2 °F 29.94 in SE 2.0 mph 12.0 mph 41% 0.00 in 0.00 W/m2
06:46 52.1 °F 29.1 °F 29.94 in SE 5.0 mph 12.0 mph 41% 0.00 in 0.00 W/m2
06:52 52.1 °F 29.1 °F 29.94 in Calm   13.0 mph 41% 0.00 in 0.00 W/m2
06:57 52.1 °F 29.1 °F 29.94 in SE 7.0 mph 11.0 mph 41% 0.00 in 0.00 W/m2
07:12 52.0 °F 29.0 °F 29.94 in Calm   13.0 mph 41% 0.00 in 0.00 W/m2
07:17 52.0 °F 29.0 °F 29.94 in ESE 9.0 mph 14.0 mph 41% 0.00 in 5.00 W/m2
07:22 52.0 °F 29.0 °F 29.93 in ESE 4.0 mph 13.0 mph 41% 0.00 in 7.00 W/m2
07:27 52.1 °F 28.5 °F 29.94 in Calm   15.0 mph 40% 0.00 in 11.00 W/m2
07:32 52.2 °F 28.6 °F 29.94 in ESE 12.0 mph 16.0 mph 40% 0.00 in 12.00 W/m2
07:34 52.3 °F 28.7 °F 29.93 in ESE 12.0 mph 16.0 mph 40% 0.00 in 14.00 W/m2
07:39 52.4 °F 28.8 °F 29.93 in East 9.0 mph 16.0 mph 40% 0.00 in 18.00 W/m2
07:44 52.5 °F 28.9 °F 29.94 in ESE 11.0 mph 18.0 mph 40% 0.00 in 25.00 W/m2
07:49 52.7 °F 28.5 °F 29.94 in ESE 9.0 mph 14.0 mph 39% 0.00 in 42.00 W/m2
07:54 52.8 °F 28.5 °F 29.94 in ESE 8.0 mph 12.0 mph 39% 0.00 in 53.00 W/m2
08:00 53.0 °F 28.7 °F 29.93 in ESE 8.0 mph 15.0 mph 39% 0.00 in 72.00 W/m2
08:05 53.2 °F 28.9 °F 29.93 in ESE 2.0 mph 18.0 mph 39% 0.00 in 83.00 W/m2
08:10 53.3 °F 29.0 °F 29.93 in East 6.0 mph 13.0 mph 39% 0.00 in 95.00 W/m2
08:15 53.6 °F 28.6 °F 29.93 in ESE 14.0 mph 17.0 mph 38% 0.00 in 107.00 W/m2
08:20 53.7 °F 29.4 °F 29.93 in ESE 8.0 mph 16.0 mph 39% 0.00 in 128.00 W/m2
08:25 54.0 °F 29.6 °F 29.93 in SE 8.0 mph 17.0 mph 39% 0.00 in 155.00 W/m2
08:30 54.2 °F 29.2 °F 29.94 in ESE 6.0 mph 14.0 mph 38% 0.00 in 183.00 W/m2
08:35 54.4 °F 30.0 °F 29.94 in ESE 7.0 mph 16.0 mph 39% 0.00 in 204.00 W/m2
08:37 54.5 °F 30.1 °F 29.94 in ESE 2.0 mph 8.0 mph 39% 0.00 in 211.00 W/m2
08:42 54.7 °F 30.2 °F 29.94 in SE 12.0 mph 12.0 mph 39% 0.00 in 116.00 W/m2
08:47 55.0 °F 30.5 °F 29.94 in SE 9.0 mph 13.0 mph 39% 0.00 in 135.00 W/m2
08:52 55.3 °F 30.1 °F 29.94 in SE 4.0 mph 12.0 mph 38% 0.00 in 114.00 W/m2
08:57 55.6 °F 29.8 °F 29.94 in SE 7.0 mph 11.0 mph 37% 0.00 in 123.00 W/m2
09:02 55.9 °F 30.0 °F 29.95 in SE 4.0 mph 7.0 mph 37% 0.00 in 153.00 W/m2
09:07 56.1 °F 30.9 °F 29.95 in Calm   9.0 mph 38% 0.00 in 146.00 W/m2
09:12 56.3 °F 31.7 °F 29.95 in SE 7.0 mph 9.0 mph 39% 0.00 in 176.00 W/m2
09:17 56.6 °F 30.6 °F 29.95 in SSE 1.0 mph 8.0 mph 37% 0.00 in 181.00 W/m2
09:22 56.7 °F 30.7 °F 29.95 in Calm   4.0 mph 37% 0.00 in 190.00 W/m2
09:27 56.9 °F 30.9 °F 29.95 in SSE 4.0 mph 9.0 mph 37% 0.00 in 200.00 W/m2
09:32 57.2 °F 31.8 °F 29.95 in SSE 7.0 mph 13.0 mph 38% 0.00 in 209.00 W/m2
09:37 57.6 °F 31.5 °F 29.95 in SSE 5.0 mph 9.0 mph 37% 0.00 in 218.00 W/m2
09:42 57.8 °F 31.7 °F 29.94 in SSE 5.0 mph 11.0 mph 37% 0.00 in 234.00 W/m2
09:47 58.2 °F 31.4 °F 29.95 in SSE 4.0 mph 12.0 mph 36% 0.00 in 218.00 W/m2
09:52 58.6 °F 31.8 °F 29.95 in SSE 6.0 mph 11.0 mph 36% 0.00 in 221.00 W/m2
09:57 59.0 °F 32.1 °F 29.95 in SSE 9.0 mph 9.0 mph 36% 0.00 in 207.00 W/m2
10:02 59.4 °F 31.8 °F 29.95 in South 9.0 mph 10.0 mph 35% 0.00 in 234.00 W/m2
10:07 59.8 °F 31.4 °F 29.95 in South 9.0 mph 11.0 mph 34% 0.00 in 274.00 W/m2
10:12 60.2 °F 31.8 °F 29.95 in SSE 7.0 mph 12.0 mph 34% 0.00 in 288.00 W/m2
10:17 60.5 °F 31.3 °F 29.95 in SSE 12.0 mph 13.0 mph 33% 0.00 in 239.00 W/m2
10:22 60.9 °F 31.6 °F 29.95 in SSE 12.0 mph 13.0 mph 33% 0.00 in 223.00 W/m2
10:23 61.0 °F 31.7 °F 29.95 in SSE 10.0 mph 14.0 mph 33% 0.00 in 216.00 W/m2
10:28 61.3 °F 31.2 °F 29.95 in South 10.0 mph 14.0 mph 32% 0.00 in 295.00 W/m2
10:33 61.6 °F 31.5 °F 29.95 in South 8.0 mph 14.0 mph 32% 0.00 in 232.00 W/m2
10:38 61.8 °F 31.6 °F 29.95 in South 7.0 mph 11.0 mph 32% 0.00 in 327.00 W/m2
10:43 62.0 °F 31.0 °F 29.95 in South 7.0 mph 10.0 mph 31% 0.00 in 281.00 W/m2
10:48 62.2 °F 32.0 °F 29.95 in SSW 4.0 mph 10.0 mph 32% 0.00 in 209.00 W/m2
10:53 62.4 °F 32.2 °F 29.95 in South 9.0 mph 11.0 mph 32% 0.00 in 446.00 W/m2
10:58 62.6 °F 32.3 °F 29.95 in SE 2.0 mph 13.0 mph 32% 0.00 in 241.00 W/m2
11:03 62.8 °F 32.5 °F 29.95 in South 5.0 mph 9.0 mph 32% 0.00 in 207.00 W/m2
11:08 63.0 °F 32.7 °F 29.95 in SSW 3.0 mph 13.0 mph 32% 0.00 in 190.00 W/m2
11:13 63.1 °F 32.8 °F 29.95 in South 4.0 mph 10.0 mph 32% 0.00 in 218.00 W/m2
11:18 63.2 °F 33.6 °F 29.95 in South 5.0 mph 8.0 mph 33% 0.00 in 171.00 W/m2
11:23 63.3 °F 33.7 °F 29.95 in SSW 7.0 mph 12.0 mph 33% 0.00 in 248.00 W/m2
11:28 63.4 °F 33.8 °F 29.95 in Calm   4.0 mph 33% 0.00 in 165.00 W/m2
11:33 63.4 °F 33.8 °F 29.95 in South 4.0 mph 9.0 mph 33% 0.00 in 214.00 W/m2
11:39 63.4 °F 33.8 °F 29.95 in SSW 3.0 mph 10.0 mph 33% 0.00 in 178.00 W/m2
11:44 63.4 °F 33.8 °F 29.96 in South 8.0 mph 8.0 mph 33% 0.00 in 253.00 W/m2
11:49 63.4 °F 33.8 °F 29.96 in Calm   10.0 mph 33% 0.00 in 381.00 W/m2
11:54 63.4 °F 34.6 °F 29.96 in SSW 3.0 mph 9.0 mph 34% 0.00 in 345.00 W/m2
11:59 63.4 °F 34.6 °F 29.96 in SW 1.0 mph 11.0 mph 34% 0.00 in 294.00 W/m2
12:04 63.4 °F 35.3 °F 29.96 in Calm   12.0 mph 35% 0.00 in 241.00 W/m2
12:09 63.4 °F 34.6 °F 29.96 in SSW 5.0 mph 14.0 mph 34% 0.00 in 220.00 W/m2
12:14 63.4 °F 35.3 °F 29.96 in SSW 9.0 mph 12.0 mph 35% 0.00 in 209.00 W/m2
12:19 63.4 °F 35.3 °F 29.96 in Calm   13.0 mph 35% 0.00 in 178.00 W/m2
12:24 63.4 °F 35.3 °F 29.96 in South 7.0 mph 11.0 mph 35% 0.00 in 232.00 W/m2
12:29 63.3 °F 35.9 °F 29.95 in SSE 12.0 mph 13.0 mph 36% 0.00 in 260.00 W/m2
12:34 63.3 °F 37.3 °F 29.95 in South 5.0 mph 13.0 mph 38% 0.00 in 237.00 W/m2
12:39 63.4 °F 38.0 °F 29.95 in South 8.0 mph 11.0 mph 39% 0.00 in 255.00 W/m2
12:44 63.4 °F 38.0 °F 29.94 in SW 6.0 mph 12.0 mph 39% 0.00 in 176.00 W/m2
12:49 63.5 °F 40.0 °F 29.94 in SSE 7.0 mph 9.0 mph 42% 0.00 in 285.00 W/m2
12:54 63.5 °F 40.6 °F 29.94 in SSE 11.0 mph 12.0 mph 43% 0.00 in 221.00 W/m2
12:59 63.6 °F 41.3 °F 29.94 in SSE 4.0 mph 9.0 mph 44% 0.00 in 237.00 W/m2
13:04 63.7 °F 42.5 °F 29.93 in SSW 4.0 mph 10.0 mph 46% 0.00 in 334.00 W/m2
13:09 63.8 °F 42.6 °F 29.93 in South 6.0 mph 12.0 mph 46% 0.00 in 555.00 W/m2
13:14 63.9 °F 42.2 °F 29.93 in South 6.0 mph 13.0 mph 45% 0.00 in 341.00 W/m2
13:19 64.0 °F 41.7 °F 29.93 in South 9.0 mph 14.0 mph 44% 0.00 in 308.00 W/m2
13:24 64.1 °F 42.3 °F 29.92 in SSW 7.0 mph 12.0 mph 45% 0.00 in 271.00 W/m2
13:29 64.2 °F 42.4 °F 29.92 in South 2.0 mph 12.0 mph 45% 0.00 in 230.00 W/m2
13:34 64.3 °F 42.5 °F 29.92 in Calm   10.0 mph 45% 0.00 in 214.00 W/m2
13:39 64.4 °F 42.0 °F 29.92 in South 8.0 mph 12.0 mph 44% 0.00 in 207.00 W/m2
13:44 64.5 °F 42.1 °F 29.91 in South 5.0 mph 16.0 mph 44% 0.00 in 274.00 W/m2
13:49 64.5 °F 42.1 °F 29.91 in SSW 3.0 mph 14.0 mph 44% 0.00 in 318.00 W/m2
13:54 64.6 °F 42.8 °F 29.91 in SSW 11.0 mph 15.0 mph 45% 0.00 in 338.00 W/m2
13:59 64.8 °F 43.0 °F 29.91 in South 8.0 mph 16.0 mph 45% 0.00 in 288.00 W/m2
14:04 65.0 °F 44.3 °F 29.91 in SSW 3.0 mph 18.0 mph 47% 0.00 in 336.00 W/m2
14:09 65.0 °F 44.3 °F 29.90 in SSW 4.0 mph 16.0 mph 47% 0.00 in 309.00 W/m2
14:14 65.1 °F 44.9 °F 29.90 in SSE 6.0 mph 13.0 mph 48% 0.00 in 295.00 W/m2
14:19 65.3 °F 45.1 °F 29.90 in SSW 3.0 mph 9.0 mph 48% 0.00 in 559.00 W/m2
14:25 65.4 °F 45.2 °F 29.90 in South 12.0 mph 15.0 mph 48% 0.00 in 223.00 W/m2
14:30 65.5 °F 44.8 °F 29.90 in SSW 7.0 mph 17.0 mph 47% 0.00 in 299.00 W/m2
14:35 65.5 °F 46.4 °F 29.89 in Calm   16.0 mph 50% 0.00 in 253.00 W/m2
14:40 65.5 °F 46.4 °F 29.89 in Calm   14.0 mph 50% 0.00 in 330.00 W/m2
14:45 65.6 °F 46.5 °F 29.89 in SSE 8.0 mph 13.0 mph 50% 0.00 in 279.00 W/m2
14:50 65.6 °F 47.5 °F 29.89 in SSW 2.0 mph 14.0 mph 52% 0.00 in 380.00 W/m2
14:55 65.6 °F 47.5 °F 29.88 in SSW 3.0 mph 16.0 mph 52% 0.00 in 272.00 W/m2
15:00 65.7 °F 47.6 °F 29.88 in SSW 12.0 mph 14.0 mph 52% 0.00 in 246.00 W/m2
15:05 65.7 °F 47.6 °F 29.88 in SSE 2.0 mph 14.0 mph 52% 0.00 in 234.00 W/m2
15:10 65.6 °F 47.5 °F 29.88 in SSW 7.0 mph 13.0 mph 52% 0.00 in 279.00 W/m2
15:15 65.6 °F 47.5 °F 29.88 in SW 9.0 mph 13.0 mph 52% 0.00 in 276.00 W/m2
15:20 65.5 °F 47.9 °F 29.88 in SSW 2.0 mph 12.0 mph 53% 0.00 in 269.00 W/m2
15:25 65.4 °F 47.8 °F 29.88 in SSW 9.0 mph 13.0 mph 53% 0.00 in 223.00 W/m2
15:30 65.4 °F 47.8 °F 29.88 in SSW 6.0 mph 12.0 mph 53% 0.00 in 200.00 W/m2
15:35 65.2 °F 47.2 °F 29.88 in SSW 4.0 mph 13.0 mph 52% 0.00 in 190.00 W/m2
15:40 65.1 °F 47.1 °F 29.88 in SW 2.0 mph 12.0 mph 52% 0.00 in 243.00 W/m2
15:45 64.9 °F 46.9 °F 29.88 in SW 2.0 mph 12.0 mph 52% 0.00 in 264.00 W/m2
15:50 64.7 °F 47.2 °F 29.88 in South 5.0 mph 6.0 mph 53% 0.00 in 353.00 W/m2
15:55 64.4 °F 47.4 °F 29.87 in South 9.0 mph 17.0 mph 54% 0.00 in 371.00 W/m2
16:00 64.3 °F 47.3 °F 29.87 in SW 8.0 mph 8.0 mph 54% 0.00 in 381.00 W/m2
16:06 64.1 °F 48.1 °F 29.87 in SW 8.0 mph 13.0 mph 56% 0.00 in 380.00 W/m2
16:10 63.9 °F 47.9 °F 29.87 in SSW 6.0 mph 11.0 mph 56% 0.00 in 330.00 W/m2
16:15 63.8 °F 48.3 °F 29.87 in South 5.0 mph 12.0 mph 57% 0.00 in 371.00 W/m2
16:20 63.7 °F 48.2 °F 29.86 in South 9.0 mph 9.0 mph 57% 0.00 in 260.00 W/m2
16:25 63.5 °F 48.5 °F 29.86 in Calm     58% 0.00 in 341.00 W/m2
16:30 63.3 °F 48.3 °F 29.86 in SSW 10.0 mph 10.0 mph 58% 0.00 in 134.00 W/m2
16:35 63.0 °F 48.5 °F 29.86 in Calm   14.0 mph 59% 0.00 in 380.00 W/m2
16:41 62.7 °F 48.2 °F 29.86 in SW 9.0 mph 10.0 mph 59% 0.00 in 139.00 W/m2
16:46 62.5 °F 48.9 °F 29.86 in SW 11.0 mph 13.0 mph 61% 0.00 in 100.00 W/m2
16:51 62.2 °F 49.0 °F 29.86 in SW 10.0 mph 12.0 mph 62% 0.00 in 102.00 W/m2
16:56 61.9 °F 49.2 °F 29.86 in SSW 4.0 mph 5.0 mph 63% 0.00 in 120.00 W/m2
17:01 61.6 °F 49.3 °F 29.86 in Calm   5.0 mph 64% 0.00 in 114.00 W/m2
17:06 61.3 °F 49.9 °F 29.86 in SW 10.0 mph 11.0 mph 66% 0.00 in 69.00 W/m2
17:11 61.0 °F 50.0 °F 29.86 in South 9.0 mph 12.0 mph 67% 0.00 in 53.00 W/m2
17:16 60.7 °F 50.5 °F 29.86 in SSW 5.0 mph 10.0 mph 69% 0.00 in 46.00 W/m2
17:21 60.3 °F 50.9 °F 29.86 in SSW 5.0 mph 7.0 mph 71% 0.00 in 37.00 W/m2
17:26 60.0 °F 51.0 °F 29.86 in Calm   4.0 mph 72% 0.00 in 53.00 W/m2
17:31 59.8 °F 50.8 °F 29.86 in SSW 3.0 mph 8.0 mph 72% 0.00 in 28.00 W/m2
17:36 59.6 °F 51.0 °F 29.86 in SSW 3.0 mph 3.0 mph 73% 0.00 in 23.00 W/m2
17:41 59.4 °F 50.8 °F 29.86 in SW 1.0 mph 6.0 mph 73% 0.00 in 18.00 W/m2
17:46 59.2 °F 50.6 °F 29.86 in SSW 6.0 mph 10.0 mph 73% 0.00 in 21.00 W/m2
17:51 59.0 °F 50.7 °F 29.85 in SSW 8.0 mph 11.0 mph 74% 0.00 in 16.00 W/m2
17:56 58.8 °F 50.5 °F 29.85 in Calm   4.0 mph 74% 0.00 in 12.00 W/m2
18:01 58.6 °F 50.3 °F 29.85 in South 7.0 mph 15.0 mph 74% 0.00 in 5.00 W/m2
18:06 58.4 °F 50.5 °F 29.85 in SSW 12.0 mph 13.0 mph 75% 0.00 in 5.00 W/m2
18:16 58.0 °F 50.1 °F 29.85 in South 6.0 mph 6.0 mph 75% 0.00 in 0.00 W/m2
18:21 57.8 °F 49.9 °F 29.85 in Calm   6.0 mph 75% 0.00 in 0.00 W/m2
18:26 57.6 °F 50.1 °F 29.86 in SW 5.0 mph 12.0 mph 76% 0.00 in 0.00 W/m2
18:31 57.4 °F 49.9 °F 29.86 in South 4.0 mph 7.0 mph 76% 0.00 in 0.00 W/m2
18:36 57.2 °F 49.7 °F 29.86 in SSW 10.0 mph 12.0 mph 76% 0.00 in 0.00 W/m2
18:41 57.0 °F 49.9 °F 29.86 in South 4.0 mph 6.0 mph 77% 0.00 in 0.00 W/m2
18:46 56.9 °F 49.8 °F 29.86 in SSW 5.0 mph 10.0 mph 77% 0.00 in 0.00 W/m2
18:51 56.7 °F 49.6 °F 29.86 in South 1.0 mph 9.0 mph 77% 0.00 in 0.00 W/m2
18:56 56.6 °F 49.5 °F 29.86 in SSW 2.0 mph 4.0 mph 77% 0.00 in 0.00 W/m2
19:01 56.4 °F 49.6 °F 29.86 in Calm     78% 0.00 in 0.00 W/m2
19:06 56.3 °F 49.5 °F 29.87 in SW 2.0 mph 11.0 mph 78% 0.00 in 0.00 W/m2
19:11 56.1 °F 49.3 °F 29.87 in SW 6.0 mph 7.0 mph 78% 0.00 in 0.00 W/m2
19:16 55.8 °F 49.0 °F 29.87 in South 8.0 mph 9.0 mph 78% 0.00 in 0.00 W/m2
19:21 55.7 °F 49.0 °F 29.87 in SSW 5.0 mph 7.0 mph 78% 0.00 in 0.00 W/m2
19:26 55.4 °F 49.0 °F 29.88 in SSW 1.0 mph 8.0 mph 79% 0.00 in 0.00 W/m2
19:32 55.2 °F 48.8 °F 29.88 in SSW 2.0 mph 6.0 mph 79% 0.00 in 0.00 W/m2
19:37 55.0 °F 48.6 °F 29.87 in Calm   1.0 mph 79% 0.00 in 0.00 W/m2
19:42 54.9 °F 48.5 °F 29.86 in SSE 9.0 mph 10.0 mph 79% 0.00 in 0.00 W/m2
19:47 54.7 °F 48.3 °F 29.86 in SSE 6.0 mph 10.0 mph 79% 0.00 in 0.00 W/m2
19:52 54.5 °F 48.1 °F 29.86 in SSE 8.0 mph 14.0 mph 79% 0.00 in 0.00 W/m2
19:57 54.4 °F 48.0 °F 29.86 in SSW 8.0 mph 10.0 mph 79% 0.00 in 0.00 W/m2
20:02 54.2 °F 48.2 °F 29.87 in SSE 7.0 mph 10.0 mph 80% 0.00 in 0.00 W/m2
20:07 54.1 °F 48.1 °F 29.87 in South 3.0 mph 8.0 mph 80% 0.00 in 0.00 W/m2
20:14 53.9 °F 47.9 °F 29.87 in Calm   11.0 mph 80% 0.00 in 0.00 W/m2
20:16 53.9 °F 47.9 °F 29.87 in Calm   4.0 mph 80% 0.00 in 0.00 W/m2
20:21 53.8 °F 48.1 °F 29.86 in South 9.0 mph 9.0 mph 81% 0.00 in 0.00 W/m2
20:25 53.7 °F 48.0 °F 29.86 in South 8.0 mph 16.0 mph 81% 0.00 in 0.00 W/m2
20:30 53.6 °F 47.9 °F 29.86 in SSE 7.0 mph 15.0 mph 81% 0.00 in 0.00 W/m2
20:35 53.5 °F 47.8 °F 29.86 in South 7.0 mph 12.0 mph 81% 0.00 in 0.00 W/m2
20:40 53.5 °F 47.8 °F 29.87 in South 9.0 mph 15.0 mph 81% 0.00 in 0.00 W/m2
20:45 53.4 °F 48.0 °F 29.87 in SSW 2.0 mph 13.0 mph 82% 0.00 in 0.00 W/m2
20:50 53.3 °F 48.0 °F 29.87 in South 3.0 mph 15.0 mph 82% 0.00 in 0.00 W/m2
20:55 53.2 °F 47.9 °F 29.87 in SW 2.0 mph 15.0 mph 82% 0.00 in 0.00 W/m2
21:00 53.0 °F 48.0 °F 29.87 in SSW 9.0 mph 15.0 mph 83% 0.00 in 0.00 W/m2
21:05 53.0 °F 48.0 °F 29.87 in SSW 8.0 mph 13.0 mph 83% 0.00 in 0.00 W/m2
21:10 52.9 °F 48.2 °F 29.87 in South 12.0 mph 12.0 mph 84% 0.00 in 0.00 W/m2
21:15 52.8 °F 48.1 °F 29.86 in South 6.0 mph 14.0 mph 84% 0.00 in 0.00 W/m2
21:20 52.6 °F 47.9 °F 29.86 in SSW 10.0 mph 18.0 mph 84% 0.00 in 0.00 W/m2
21:25 52.5 °F 47.8 °F 29.86 in SSW 3.0 mph 14.0 mph 84% 0.00 in 0.00 W/m2
21:30 52.4 °F 48.0 °F 29.86 in South 9.0 mph 16.0 mph 85% 0.00 in 0.00 W/m2
21:35 52.3 °F 47.9 °F 29.86 in South 4.0 mph 13.0 mph 85% 0.00 in 0.00 W/m2
21:40 52.2 °F 47.8 °F 29.85 in SSE 6.0 mph 16.0 mph 85% 0.00 in 0.00 W/m2
21:45 52.1 °F 47.7 °F 29.85 in South 10.0 mph 13.0 mph 85% 0.00 in 0.00 W/m2
21:50 52.1 °F 47.7 °F 29.85 in South 8.0 mph 15.0 mph 85% 0.00 in 0.00 W/m2
21:55 52.1 °F 47.7 °F 29.85 in South 11.0 mph 16.0 mph 85% 0.00 in 0.00 W/m2
22:01 52.0 °F 47.6 °F 29.85 in South 5.0 mph 5.0 mph 85% 0.00 in 0.00 W/m2
22:06 52.1 °F 47.7 °F 29.85 in South 11.0 mph 11.0 mph 85% 0.00 in 0.00 W/m2
22:11 52.1 °F 47.7 °F 29.85 in SSW 10.0 mph 10.0 mph 85% 0.00 in 0.00 W/m2
22:16 52.1 °F 47.7 °F 29.85 in South 2.0 mph 5.0 mph 85% 0.00 in 0.00 W/m2
22:21 52.0 °F 47.6 °F 29.85 in South 5.0 mph 12.0 mph 85% 0.00 in 0.00 W/m2
22:26 52.1 °F 47.7 °F 29.84 in South 3.0 mph 5.0 mph 85% 0.00 in 0.00 W/m2
22:31 52.0 °F 47.6 °F 29.84 in South 8.0 mph 8.0 mph 85% 0.22 in 0.00 W/m2
22:46 52.0 °F 47.6 °F 29.84 in SSW 4.0 mph 5.0 mph 85% 0.06 in 0.00 W/m2
22:51 52.0 °F 47.6 °F 29.83 in Calm   5.0 mph 85% 0.05 in 0.00 W/m2
22:56 52.0 °F 47.6 °F 29.83 in South 7.0 mph 14.0 mph 85% 0.05 in 0.00 W/m2
23:01 52.0 °F 47.6 °F 29.83 in South 14.0 mph 15.0 mph 85% 0.05 in 0.00 W/m2
23:06 51.9 °F 47.5 °F 29.83 in Calm   1.0 mph 85% 0.00 in 0.00 W/m2
23:11 51.9 °F 47.5 °F 29.83 in South 3.0 mph 5.0 mph 85% 0.00 in 0.00 W/m2
23:16 51.9 °F 47.5 °F 29.83 in South 8.0 mph 11.0 mph 85% 0.00 in 0.00 W/m2
23:21 51.9 °F 47.5 °F 29.83 in South 13.0 mph 19.0 mph 85% 0.00 in 0.00 W/m2
23:26 51.8 °F 47.4 °F 29.82 in SSE 9.0 mph 13.0 mph 85% 0.00 in 0.00 W/m2
23:31 51.8 °F 47.4 °F 29.81 in SSE 8.0 mph 11.0 mph 85% 0.00 in 0.00 W/m2
23:41 51.7 °F 47.3 °F 29.81 in South 14.0 mph 20.0 mph 85% 0.00 in 0.00 W/m2
23:42 51.7 °F 47.3 °F 29.81 in SSE 7.0 mph 20.0 mph 85% 0.00 in 0.00 W/m2
23:47 51.7 °F 47.3 °F 29.81 in SSE 7.0 mph 18.0 mph 85% 0.00 in 0.00 W/m2
23:57 51.7 °F 47.3 °F 29.80 in SSE 18.0 mph 18.0 mph 85% 0.00 in 0.00 W/m2
Foresthill Weather
 WU-history PHP script courtesy of   Juneau County Weather.
powered by Cumulus v1.9.3 (1059)
Ambient Weather VWS v14.00
Top Contact Website Map Copyright © 2007 - 2018 Foresthillweather.com Never base important decisions on this or any weather information obtained from the Internet